Regional Weather Roundup
Issued by NWS Northern Indiana

Home | Current Version | Previous Version | Text Only | Print | Product List | Glossary Off
Versions: 1 2 3 4 5 6 7 8 9 10 11 12 13 14 15 16 17 18 19 20 21 22 23 24 25 26 27 28 29 30 31 32 33 34 35 36 37 38 39 40 41 42 43 44 45 46 47 48 49 50

000
ASUS43 KIWX 241700
RWRIWX

KIWX WEATHER ROUNDUP
NATIONAL WEATHER SERVICE NORTHERN INDIANA
100 PM EDT MON APR 24 2017

NOTE: "FAIR" INDICATES FEW OR NO CLOUDS BELOW 12,000 FEET WITH NO
SIGNIFICANT WEATHER AND/OR OBSTRUCTIONS TO VISIBILITY.

* THESE STATIONS ARE NOT UNDER NWS QUALITY CONTROL. THEY ALSO MAY NOT
  REPORT WEATHER SUCH AS PRECIPITATION OR FOG.

INZ001>027-241800-
NORTHERN INDIANA

CITY           SKY/WX    TMP DP  RH WIND       PRES   REMARKS
GARY*          PTSUNNY   59  43  55 CALM      29.99
LAPORTE*       SUNNY     68  28  21 E12       29.99F
KNOX*          SUNNY    N/A N/A N/A E9G20     29.98F
SOUTH BEND     SUNNY     67  31  26 E13G20    30.00F
ELKHART*       SUNNY     68  27  21 E13       30.00F
GOSHEN         SUNNY     67  30  25 E12       29.99F
MONTICELLO*    SUNNY     69  30  23 NE9       29.96F
WARSAW*        SUNNY     68  32  26 E10       29.98F
ANGOLA*        SUNNY     66  36  32 E9        30.01F
FORT WAYNE     MOSUNNY   66  38  35 NE16      29.98F
HUNTINGTON*    SUNNY     67  36  31 NE13      29.97F
PERU/GRISSOM   SUNNY     69  32  25 E12G18    29.95F

$$
INZ028>050-241800-
CENTRAL INDIANA

CITY           SKY/WX    TMP DP  RH WIND       PRES   REMARKS
KOKOMO*        SUNNY     68  35  29 E17       29.96F
MUNCIE*        SUNNY     72  31  22 E16G25    29.94F
INDIANAPOLIS   MOSUNNY   71  36  27 NE13      29.92F

$$
MIZ043>046-050>051-056>058-064>065-071>073-077>080-241800-
SOUTHWEST LOWER MICHIGAN

CITY           SKY/WX    TMP DP  RH WIND       PRES   REMARKS
BATTLE CREEK   SUNNY     67  31  26 E10       30.03F
BENTON HARBOR  SUNNY     70  31  23 SE13      29.99F
COLDWATER*     SUNNY     66  28  23 E10       30.01F
HILLSDALE*     SUNNY     64  36  34 E10       30.02F
HOLLAND        SUNNY     69  38  32 E13       30.00F
GRAND RAPIDS   PTSUNNY   67  38  34 SE10      30.02F
KALAMAZOO      SUNNY     69  27  20 E9        30.02F
STURGIS*       SUNNY     68  24  18 E8G21     30.00F
THREE RIVERS*  FAIR      66  27  22 SE9G17    30.01F

$$
OHZ001>008-015>018-024>025-241800-
NORTHWEST OHIO

CITY           SKY/WX    TMP DP  RH WIND       PRES   REMARKS
DEFIANCE       SUNNY     66  37  34 NE13G21   29.99F
FINDLAY        SUNNY     69  36  29 NE16G24   29.97F
TOLEDO EXPRESS SUNNY     62  38  40 NE21G28   30.02F
TOLEDO METCALF SUNNY     60  41  49 NE16G26   30.04S
LIMA           SUNNY     69  36  29 NE16      29.96F

$$
AND FOR LAKE MICHIGAN COASTAL AND OPEN LAKE BUOY OBSERVATIONS

STATION/POSITION TEMP    WIND        PRES    VSBY  WAVE
                 AIR SEA DIR/SP/G                  HT/PER
                 (F)     (DEG/KT/KT) (MB)    (MI)  (FT/S)
CALUMET HARBOR    54     350/  4/  6 1015.4
MICHIGAN CITY     60      30/  5/  8   N/A
BURNS HARBOR      49      CALM  /  5 1016.3F
SOUTH LAKE BUOY   43 41   90/  6/  8 1017.0          1/ 5
4 MI NW BRIDGMAN  62 52  140/  8/ 10 1015.6F         2/ 2

$$
&&



USA.gov is the U.S. government's official web portal to all federal, state and local government web resources and services.